Weather History for KFLL - February, 2014

Change the Weather History Date:

Friday, February 21, 2014

  Actual Average Record
Temperature  
Mean Temperature 81 °F 71 °F  
Max Temperature 85 °F 78 °F 85 °F (1975)
Min Temperature 76 °F 65 °F 39 °F (1958)
Degree Days  
Heating Degree Days 0 1  
Month to date heating degree days 5 21  
Since 1 July heating degree days 80 101  
Cooling Degree Days 16 7  
Month to date cooling degree days 180 138  
Year to date cooling degree days 305 308  
Growing Degree Days 30 (Base 50)    
Moisture  
Dew Point 71 °F    
Average Humidity 72    
Maximum Humidity 82    
Minimum Humidity 61    
Precipitation  
Precipitation 0.00 in 0.09 in 0.90 in (1954)
Month to date precipitation 1.24 2.30  
Year to date precipitation 5.40 5.93  
Snow  
Snow 0.00 in - - ()
Month to date snowfall 0.0  
Since 1 July snowfall 0.0  
Snow Depth 0.00 in    
Sea Level Pressure  
Sea Level Pressure 30.06 in    
Wind  
Wind Speed 12 mph (SSE)    
Max Wind Speed 22 mph    
Max Gust Speed 28 mph    
Visibility 10 miles    
Events      
T = Trace of Precipitation, MM = Missing Value Source: NWS Daily Summary

Daily Weather History Graph

Daily Weather History Graph

Search for Another Location

Airport or City:

Trip Planner

Search our weather history database for the weather conditions in past years. The results will help you decide how hot, cold, wet, or windy it might be!

Date:

Astronomy

Feb. 21, 2014 Rise Set
Actual Time 6:51 AM EST 6:17 PM EST
Civil Twilight 6:27 AM EST 6:40 PM EST
Nautical Twilight 6:00 AM EST 7:07 PM EST
Astronomical Twilight 5:34 AM EST 7:34 PM EST
Moon No Moon Rise 10:52 AM EST (2/21)
Length of Visible Light 12h 13m
Length of Day
11h 26m
Waning Gibbous, 61% of the Moon is Illuminated
Feb 21
Waning Gibbous
Feb 22
Last Quarter
Mar 1
New
Mar 8
First Quarter
Mar 16
Full

Hourly Weather History & Observations

Time (EST) Temp. Heat Index Dew Point Humidity Pressure Visibility Wind Dir Wind Speed Gust Speed Precip Events Conditions
12:30 AM 77.0 °F - 71.6 °F 83% 30.08 in 10.0 mi SE 15.0 mph - N/A   Mostly Cloudy
12:53 AM 77.0 °F - 71.1 °F 82% 30.08 in 10.0 mi SE 19.6 mph - N/A   Mostly Cloudy
1:24 AM 77.0 °F - 71.6 °F 83% 30.06 in 10.0 mi SE 17.3 mph - N/A   Scattered Clouds
1:53 AM 77.0 °F - 71.1 °F 82% 30.05 in 10.0 mi SE 15.0 mph - N/A   Scattered Clouds
2:13 AM 77.0 °F - 69.8 °F 78% 30.05 in 10.0 mi SSE 16.1 mph - N/A   Mostly Cloudy
2:53 AM 77.0 °F - 71.1 °F 82% 30.04 in 10.0 mi SE 15.0 mph - N/A   Mostly Cloudy
3:25 AM 77.0 °F - 71.6 °F 83% 30.04 in 10.0 mi SSE 10.4 mph - N/A   Scattered Clouds
3:53 AM 77.0 °F - 71.1 °F 82% 30.04 in 10.0 mi SSE 10.4 mph 19.6 mph N/A   Scattered Clouds
4:53 AM 77.0 °F - 70.0 °F 79% 30.05 in 10.0 mi SSE 8.1 mph - N/A   Scattered Clouds
5:53 AM 75.9 °F - 70.0 °F 82% 30.06 in 10.0 mi SSE 10.4 mph - N/A   Scattered Clouds
6:53 AM 77.0 °F - 70.0 °F 79% 30.08 in 10.0 mi SSE 10.4 mph - N/A   Scattered Clouds
7:53 AM 78.1 °F - 71.1 °F 79% 30.10 in 10.0 mi SSE 13.8 mph - N/A   Partly Cloudy
8:53 AM 80.1 °F 83.6 °F 71.1 °F 74% 30.11 in 10.0 mi SSE 13.8 mph - N/A   Partly Cloudy
9:53 AM 81.0 °F 84.9 °F 71.1 °F 72% 30.12 in 10.0 mi SSE 17.3 mph - N/A   Scattered Clouds
10:53 AM 82.0 °F 86.3 °F 71.1 °F 69% 30.09 in 10.0 mi SSE 17.3 mph 23.0 mph N/A   Mostly Cloudy
11:53 AM 82.9 °F 87.0 °F 70.0 °F 65% 30.06 in 10.0 mi SE 20.7 mph 27.6 mph N/A   Mostly Cloudy
12:53 PM 82.9 °F 87.0 °F 70.0 °F 65% 30.08 in 10.0 mi SSE 9.2 mph - N/A   Mostly Cloudy
1:53 PM 84.0 °F 88.4 °F 70.0 °F 63% 30.05 in 10.0 mi SSE 18.4 mph 23.0 mph N/A   Scattered Clouds
2:53 PM 84.0 °F 88.4 °F 70.0 °F 63% 30.04 in 10.0 mi SE 15.0 mph 21.9 mph N/A   Mostly Cloudy
3:53 PM 82.0 °F 85.9 °F 70.0 °F 67% 30.04 in 10.0 mi SSE 15.0 mph 21.9 mph N/A   Mostly Cloudy
4:53 PM 81.0 °F 84.9 °F 71.1 °F 72% 30.04 in 10.0 mi SSE 15.0 mph - N/A   Mostly Cloudy
5:53 PM 79.0 °F - 71.1 °F 77% 30.05 in 10.0 mi SSE 10.4 mph - N/A   Mostly Cloudy
6:53 PM 79.0 °F - 71.1 °F 77% 30.04 in 10.0 mi SSE 9.2 mph - N/A   Scattered Clouds
7:53 PM 78.1 °F - 71.1 °F 79% 30.06 in 10.0 mi SSE 5.8 mph - N/A   Scattered Clouds
8:53 PM 78.1 °F - 72.0 °F 81% 30.08 in 10.0 mi SSE 5.8 mph - N/A   Partly Cloudy
9:53 PM 77.0 °F - 72.0 °F 84% 30.06 in 10.0 mi SSE 9.2 mph - N/A   Partly Cloudy
10:53 PM 77.0 °F - 72.0 °F 84% 30.07 in 10.0 mi South 6.9 mph - N/A   Scattered Clouds
11:53 PM 75.9 °F - 72.0 °F 87% 30.06 in 10.0 mi SSE 6.9 mph - N/A   Scattered Clouds